McComb, MS

9:43 PM CDT on July 25, 2017 (GMT -0500)
McComb-Pike County-Lewis

Weather History for KMCB - May, 2012

Change the Weather History Date:

Monday, May 7, 2012

  Actual Average Record
Temperature  
Mean Temperature 77 °F -  
Max Temperature 89 °F 80 °F 93 °F (1952)
Min Temperature 66 °F 59 °F 41 °F (1992)
Cooling Degree Days 12    
Growing Degree Days 27 (Base 50)    
Moisture  
Dew Point 66 °F    
Average Humidity 85    
Maximum Humidity 100    
Minimum Humidity 49    
Precipitation  
Precipitation 0.98 in - - ()
Sea Level Pressure  
Sea Level Pressure 29.89 in    
Wind  
Wind Speed 4 mph (NE)    
Max Wind Speed 28 mph    
Max Gust Speed 39 mph    
Visibility 7 miles    
Events Fog , Rain , Thunderstorm    
Averages and records for this station are not official NWS values.
T = Trace of Precipitation, MM = Missing Value Source: NWS Daily Summary

Daily Weather History Graph

Daily Weather History Graph

Search for Another Location

Airport or City:

Trip Planner

Search our weather history database for the weather conditions in past years. The results will help you decide how hot, cold, wet, or windy it might be!

Date:

Astronomy

May. 07, 2012 Rise Set
Actual Time 6:11 AM CDT 7:45 PM CDT
Civil Twilight 5:45 AM CDT 8:11 PM CDT
Nautical Twilight 5:14 AM CDT 8:43 PM CDT
Astronomical Twilight 4:41 AM CDT 9:15 PM CDT
Moon 9:51 PM CDT (5/7) 7:22 AM CDT (5/7)
Length of Visible Light 14h 26m
Length of Day
13h 33m
Waning Gibbous, 96% of the Moon is Illuminated
May 7
Waning Gibbous
May 12
Last Quarter
May 20
New
May 28
First Quarter
Jun 4
Full

Hourly Weather History & Observations

Time (CDT) Temp. Heat Index Dew Point Humidity Pressure Visibility Wind Dir Wind Speed Gust Speed Precip Events Conditions
12:53 AM 69.1 °F - 66.0 °F 90% 29.91 in 10.0 mi ESE 3.5 mph - N/A   Clear
1:53 AM 69.1 °F - 66.0 °F 90% 29.89 in 9.0 mi Calm Calm - N/A   Clear
2:53 AM 68.0 °F - 66.0 °F 93% 29.87 in 10.0 mi Calm Calm - N/A   Clear
3:53 AM 66.9 °F - 64.9 °F 93% 29.87 in 10.0 mi Calm Calm - N/A   Clear
4:53 AM 66.9 °F - 64.9 °F 93% 29.88 in 9.0 mi NE 3.5 mph - N/A   Clear
5:53 AM 66.0 °F - 64.9 °F 96% 29.88 in 7.0 mi Calm Calm - N/A   Clear
6:53 AM 66.9 °F - 64.9 °F 93% 29.89 in 4.0 mi Calm Calm - N/A   Clear
6:59 AM 66.2 °F - 64.4 °F 94% 29.91 in 2.5 mi Calm Calm - N/A   Partly Cloudy
7:03 AM 66.2 °F - 64.4 °F 94% 29.91 in 1.0 mi Calm Calm - N/A   Mist
7:15 AM 68.0 °F - 64.4 °F 88% 29.91 in 2.0 mi ENE 3.5 mph - N/A   Partly Cloudy
7:23 AM 68.0 °F - 64.4 °F 88% 29.91 in 7.0 mi Calm Calm - N/A   Partly Cloudy
7:53 AM 69.1 °F - 66.9 °F 93% 29.90 in 5.0 mi Calm Calm - N/A   Scattered Clouds
8:33 AM 71.6 °F - 68.0 °F 88% 29.92 in 9.0 mi Calm Calm - N/A   Mostly Cloudy
8:53 AM 75.0 °F - 69.1 °F 82% 29.91 in 10.0 mi Calm Calm - N/A   Mostly Cloudy
9:07 AM 75.2 °F - 69.8 °F 83% 29.92 in 10.0 mi North 3.5 mph - N/A   Scattered Clouds
9:53 AM 80.1 °F 82.9 °F 69.1 °F 69% 29.91 in 10.0 mi Calm Calm - N/A   Clear
10:53 AM 82.0 °F 85.5 °F 69.1 °F 65% 29.94 in 10.0 mi NNE 6.9 mph - N/A   Clear
11:53 AM 84.0 °F 87.0 °F 68.0 °F 58% 29.92 in 10.0 mi Variable 4.6 mph - N/A   Clear
12:53 PM 84.9 °F 87.6 °F 66.9 °F 55% 29.91 in 10.0 mi ENE 4.6 mph - N/A   Partly Cloudy
1:53 PM 88.0 °F 90.7 °F 66.9 °F 49% 29.88 in 10.0 mi South 6.9 mph - N/A   Mostly Cloudy
2:53 PM 87.1 °F 89.9 °F 66.9 °F 51% 29.84 in 10.0 mi East 5.8 mph - N/A   Mostly Cloudy
3:28 PM 84.2 °F 86.6 °F 66.2 °F 55% 29.85 in 10.0 mi SE 4.6 mph - N/A Thunderstorm Scattered Clouds
3:53 PM 84.0 °F 86.5 °F 66.9 °F 56% 29.83 in 10.0 mi South 6.9 mph - N/A Thunderstorm Mostly Cloudy
4:13 PM 69.8 °F - 66.2 °F 88% 29.89 in 0.8 mi North 27.6 mph 39.1 mph 0.21 in Rain , Thunderstorm Heavy Thunderstorms and Rain
4:18 PM 69.8 °F - 66.2 °F 88% 29.92 in 0.5 mi North 21.9 mph 39.1 mph 0.37 in Fog , Rain , Thunderstorm Heavy Thunderstorms and Rain
4:28 PM 68.0 °F - 68.0 °F 100% 29.90 in 0.8 mi North 18.4 mph 28.8 mph 0.56 in Rain , Thunderstorm Heavy Thunderstorms and Rain
4:36 PM 69.8 °F - 66.2 °F 88% 29.90 in 1.2 mi North 25.3 mph 36.8 mph 0.63 in Rain , Thunderstorm Heavy Thunderstorms and Rain
4:48 PM 68.0 °F - 66.2 °F 94% 29.93 in 1.8 mi NNE 21.9 mph 29.9 mph 0.68 in Rain , Thunderstorm Thunderstorms and Rain
4:53 PM 66.9 °F - 66.0 °F 97% 29.90 in 1.8 mi NNE 18.4 mph 29.9 mph 0.73 in Rain , Thunderstorm Heavy Thunderstorms and Rain
5:12 PM 66.2 °F - 64.4 °F 94% 29.93 in 3.0 mi NNE 11.5 mph 21.9 mph 0.14 in Rain , Thunderstorm Thunderstorms and Rain
5:53 PM 66.9 °F - 64.9 °F 93% 29.88 in 5.0 mi SE 4.6 mph - 0.18 in Rain Rain
6:13 PM 66.2 °F - 64.4 °F 94% 29.88 in 8.0 mi ESE 5.8 mph - 0.02 in Rain , Thunderstorm Light Rain
6:28 PM 66.2 °F - 64.4 °F 94% 29.90 in 7.0 mi Calm Calm - 0.03 in Rain Light Rain
6:53 PM 66.9 °F - 64.9 °F 93% 29.88 in 8.0 mi Calm Calm - 0.06 in Rain Light Rain
7:53 PM 66.9 °F - 64.9 °F 93% 29.87 in 10.0 mi SSW 6.9 mph - 0.00 in Rain Light Rain
8:53 PM 66.9 °F - 64.9 °F 93% 29.86 in 10.0 mi South 12.7 mph - 0.01 in   Partly Cloudy
9:53 PM 66.0 °F - 64.9 °F 96% 29.87 in 10.0 mi Calm Calm - N/A   Clear
10:53 PM 66.0 °F - 64.9 °F 96% 29.88 in 10.0 mi West 4.6 mph - N/A   Clear
11:53 PM 66.0 °F - 64.9 °F 96% 29.88 in 10.0 mi NNW 5.8 mph - N/A   Clear